Tracking 33446 objects as of 10-Mar-2026
HD Live streaming from Space Station
objects crossing your sky now

STARLINK-35494

Track STARLINK-35494 now!
10-day predictions
STARLINK-35494 is classified as:


NORAD ID: 65927
Int'l Code: 2025-225T
Perigee: 481.4 km
Apogee: 483.4 km
Inclination: 53.2 °
Period: 94.1 minutes
Semi major axis: 6853 km
RCS: Unknown
Launch date: October 8, 2025
Source: United States (US)
Launch site: AIR FORCE WESTERN TEST RANGE (AFWTR)
Your satellite tracking list
Your tracking list is empty




NASA's NSSDC Master Catalog

Two Line Element Set (TLE):
1 65927U 25225T   26068.55778901  .00016205  00000-0  55837-3 0  9994
2 65927  53.1577 166.5941 0001451  86.3540 273.7626 15.30182411 24384
Source of the keplerian elements: AFSPC